owner,sensor,date,latitude,longitude,vertical_datum,mass_concentration_of_oxygen_in_sea_water,qcFlag 
DISL,ioos:station:DISL:KATA:1,2015-11-01T00:00:00Z,30.2583,-88.2131,4.338,7.08,1111122 
DISL,ioos:station:DISL:KATA:1,2015-11-01T00:30:00Z,30.2583,-88.2131,4.349,7.04,1111122 
DISL,ioos:station:DISL:KATA:1,2015-11-01T01:00:00Z,30.2583,-88.2131,4.388,6.95,1111122 
DISL,ioos:station:DISL:KATA:1,2015-11-01T01:30:00Z,30.2583,-88.2131,4.591,7.02,1111122 
DISL,ioos:station:DISL:KATA:1,2015-11-01T02:00:00Z,30.2583,-88.2131,4.515,7.05,1111122 
DISL,ioos:station:DISL:KATA:1,2015-11-01T02:30:00Z,30.2583,-88.2131,4.504,6.93,1111122 
DISL,ioos:station:DISL:KATA:1,2015-11-01T03:00:00Z,30.2583,-88.2131,4.459,6.87,1111122 
DISL,ioos:station:DISL:KATA:1,2015-11-01T03:30:00Z,30.2583,-88.2131,4.425,6.71,1111122 
DISL,ioos:station:DISL:KATA:1,2015-11-01T04:00:00Z,30.2583,-88.2131,4.431,6.69,1111122 
DISL,ioos:station:DISL:KATA:1,2015-11-01T04:30:00Z,30.2583,-88.2131,4.482,6.73,1111122 
DISL,ioos:station:DISL:KATA:1,2015-11-01T05:00:00Z,30.2583,-88.2131,4.512,6.7,1111122 
DISL,ioos:station:DISL:KATA:1,2015-11-01T05:30:00Z,30.2583,-88.2131,4.504,6.56,1111122 
DISL,ioos:station:DISL:KATA:1,2015-11-01T06:00:00Z,30.2583,-88.2131,4.497,6.37,1111122 
DISL,ioos:station:DISL:KATA:1,2015-11-01T06:30:00Z,30.2583,-88.2131,4.551,6.57,1111122 
DISL,ioos:station:DISL:KATA:1,2015-11-01T07:00:00Z,30.2583,-88.2131,4.538,6.49,1111122 
DISL,ioos:station:DISL:KATA:1,2015-11-01T07:30:00Z,30.2583,-88.2131,4.518,6.65,1111122 
DISL,ioos:station:DISL:KATA:1,2015-11-01T08:00:00Z,30.2583,-88.2131,4.531,6.06,1111122 
DISL,ioos:station:DISL:KATA:1,2015-11-01T08:30:00Z,30.2583,-88.2131,4.478,6.1,1111122 
DISL,ioos:station:DISL:KATA:1,2015-11-01T09:00:00Z,30.2583,-88.2131,4.448,5.87,1111122 
DISL,ioos:station:DISL:KATA:1,2015-11-01T09:30:00Z,30.2583,-88.2131,4.426,6.43,1111122 
DISL,ioos:station:DISL:KATA:1,2015-11-01T10:00:00Z,30.2583,-88.2131,4.387,6.49,1111122 
DISL,ioos:station:DISL:KATA:1,2015-11-01T10:30:00Z,30.2583,-88.2131,4.352,6.33,1111122 
DISL,ioos:station:DISL:KATA:1,2015-11-01T11:00:00Z,30.2583,-88.2131,4.321,6.46,1111122 
DISL,ioos:station:DISL:KATA:1,2015-11-01T11:30:00Z,30.2583,-88.2131,4.271,6.19,1111122 
DISL,ioos:station:DISL:KATA:1,2015-11-01T12:00:00Z,30.2583,-88.2131,4.218,6.3,1111122 
DISL,ioos:station:DISL:KATA:1,2015-11-01T12:30:00Z,30.2583,-88.2131,4.175,6.37,1111122 
DISL,ioos:station:DISL:KATA:1,2015-11-01T13:00:00Z,30.2583,-88.2131,4.12,6.33,1111122 
DISL,ioos:station:DISL:KATA:1,2015-11-01T13:30:00Z,30.2583,-88.2131,4.058,6.34,1111122 
DISL,ioos:station:DISL:KATA:1,2015-11-01T14:00:00Z,30.2583,-88.2131,4.03,6.36,1111122 
DISL,ioos:station:DISL:KATA:1,2015-11-01T14:30:00Z,30.2583,-88.2131,3.99,6.54,1111122 
DISL,ioos:station:DISL:KATA:1,2015-11-01T15:00:00Z,30.2583,-88.2131,3.96,6.67,1111122 
DISL,ioos:station:DISL:KATA:1,2015-11-01T15:30:00Z,30.2583,-88.2131,3.939,6.72,1111122 
DISL,ioos:station:DISL:KATA:1,2015-11-01T16:00:00Z,30.2583,-88.2131,3.951,6.78,1111122 
DISL,ioos:station:DISL:KATA:1,2015-11-01T16:30:00Z,30.2583,-88.2131,3.988,6.72,1111122 
DISL,ioos:station:DISL:KATA:1,2015-11-01T17:00:00Z,30.2583,-88.2131,4.05,6.69,1111122 
DISL,ioos:station:DISL:KATA:1,2015-11-01T17:30:00Z,30.2583,-88.2131,4.066,6.76,1111122 
DISL,ioos:station:DISL:KATA:1,2015-11-01T18:00:00Z,30.2583,-88.2131,4.01,6.84,1111122 
DISL,ioos:station:DISL:KATA:1,2015-11-01T18:30:00Z,30.2583,-88.2131,3.983,6.86,1111122 
DISL,ioos:station:DISL:KATA:1,2015-11-01T19:00:00Z,30.2583,-88.2131,3.944,6.91,1111122 
DISL,ioos:station:DISL:KATA:1,2015-11-01T19:30:00Z,30.2583,-88.2131,3.955,6.96,1111122 
DISL,ioos:station:DISL:KATA:1,2015-11-01T20:00:00Z,30.2583,-88.2131,4.012,7.04,1111122 
DISL,ioos:station:DISL:KATA:1,2015-11-01T20:30:00Z,30.2583,-88.2131,4.03,6.98,1111122 
DISL,ioos:station:DISL:KATA:1,2015-11-01T21:00:00Z,30.2583,-88.2131,4.042,6.98,1111122 
DISL,ioos:station:DISL:KATA:1,2015-11-01T21:30:00Z,30.2583,-88.2131,4.057,6.96,1111122 
DISL,ioos:station:DISL:KATA:1,2015-11-01T22:00:00Z,30.2583,-88.2131,4.075,6.98,1111122 
DISL,ioos:station:DISL:KATA:1,2015-11-01T22:30:00Z,30.2583,-88.2131,4.089,6.96,1111122 
DISL,ioos:station:DISL:KATA:1,2015-11-01T23:00:00Z,30.2583,-88.2131,4.148,6.95,1111122 
DISL,ioos:station:DISL:KATA:1,2015-11-01T23:30:00Z,30.2583,-88.2131,4.22,6.89,1111122 
DISL,ioos:station:DISL:KATA:1,2015-11-02T00:00:00Z,30.2583,-88.2131,4.229,6.89,1111122 
DISL,ioos:station:DISL:KATA:1,2015-11-02T00:30:00Z,30.2583,-88.2131,4.239,6.84,1111122 
DISL,ioos:station:DISL:KATA:1,2015-11-02T01:00:00Z,30.2583,-88.2131,4.276,6.83,1111122 
DISL,ioos:station:DISL:KATA:1,2015-11-02T01:30:00Z,30.2583,-88.2131,4.334,6.83,1111122 
DISL,ioos:station:DISL:KATA:1,2015-11-02T02:00:00Z,30.2583,-88.2131,4.376,6.75,1111122 
DISL,ioos:station:DISL:KATA:1,2015-11-02T02:30:00Z,30.2583,-88.2131,4.406,6.77,1111122 
DISL,ioos:station:DISL:KATA:1,2015-11-02T03:00:00Z,30.2583,-88.2131,4.44,6.72,1111122 
DISL,ioos:station:DISL:KATA:1,2015-11-02T03:30:00Z,30.2583,-88.2131,4.477,6.77,1111122 
DISL,ioos:station:DISL:KATA:1,2015-11-02T04:00:00Z,30.2583,-88.2131,4.498,6.71,1111122 
DISL,ioos:station:DISL:KATA:1,2015-11-02T04:30:00Z,30.2583,-88.2131,4.538,6.68,1111122 
DISL,ioos:station:DISL:KATA:1,2015-11-02T05:00:00Z,30.2583,-88.2131,4.55,6.63,1111122 
DISL,ioos:station:DISL:KATA:1,2015-11-02T05:30:00Z,30.2583,-88.2131,4.559,6.61,1111122 
DISL,ioos:station:DISL:KATA:1,2015-11-02T06:00:00Z,30.2583,-88.2131,4.584,6.66,1111122 
DISL,ioos:station:DISL:KATA:1,2015-11-02T06:30:00Z,30.2583,-88.2131,4.574,6.58,1111122 
DISL,ioos:station:DISL:KATA:1,2015-11-02T07:00:00Z,30.2583,-88.2131,4.559,6.58,1111122 
DISL,ioos:station:DISL:KATA:1,2015-11-02T07:30:00Z,30.2583,-88.2131,4.52,6.53,1111122 
DISL,ioos:station:DISL:KATA:1,2015-11-02T08:00:00Z,30.2583,-88.2131,4.487,6.44,1111122 
DISL,ioos:station:DISL:KATA:1,2015-11-02T08:30:00Z,30.2583,-88.2131,4.483,6.28,1111122 
DISL,ioos:station:DISL:KATA:1,2015-11-02T09:00:00Z,30.2583,-88.2131,4.47,6.08,1111122 
DISL,ioos:station:DISL:KATA:1,2015-11-02T09:30:00Z,30.2583,-88.2131,4.465,5.93,1111122 
DISL,ioos:station:DISL:KATA:1,2015-11-02T10:00:00Z,30.2583,-88.2131,4.46,6.54,1111122 
DISL,ioos:station:DISL:KATA:1,2015-11-02T10:30:00Z,30.2583,-88.2131,4.434,6.52,1111122 
DISL,ioos:station:DISL:KATA:1,2015-11-02T11:00:00Z,30.2583,-88.2131,4.394,6.46,1111122 
DISL,ioos:station:DISL:KATA:1,2015-11-02T11:30:00Z,30.2583,-88.2131,4.369,6.42,1111122 
DISL,ioos:station:DISL:KATA:1,2015-11-02T12:00:00Z,30.2583,-88.2131,4.323,6.29,1111122 
DISL,ioos:station:DISL:KATA:1,2015-11-02T12:30:00Z,30.2583,-88.2131,4.265,6.34,1111122 
DISL,ioos:station:DISL:KATA:1,2015-11-02T13:00:00Z,30.2583,-88.2131,4.237,6.38,1111122 
DISL,ioos:station:DISL:KATA:1,2015-11-02T13:30:00Z,30.2583,-88.2131,4.2,6.49,1111122 
DISL,ioos:station:DISL:KATA:1,2015-11-02T14:00:00Z,30.2583,-88.2131,4.169,6.5,1111122 
DISL,ioos:station:DISL:KATA:1,2015-11-02T14:30:00Z,30.2583,-88.2131,4.144,6.46,1111122 
DISL,ioos:station:DISL:KATA:1,2015-11-02T15:00:00Z,30.2583,-88.2131,4.135,6.35,1111122 
DISL,ioos:station:DISL:KATA:1,2015-11-02T15:30:00Z,30.2583,-88.2131,4.105,6.42,1111122 
DISL,ioos:station:DISL:KATA:1,2015-11-02T16:00:00Z,30.2583,-88.2131,4.092,6.29,1111122 
DISL,ioos:station:DISL:KATA:1,2015-11-02T16:30:00Z,30.2583,-88.2131,4.071,6.3,1111122 
DISL,ioos:station:DISL:KATA:1,2015-11-02T17:00:00Z,30.2583,-88.2131,4.062,6.38,1111122 
DISL,ioos:station:DISL:KATA:1,2015-11-02T17:30:00Z,30.2583,-88.2131,4.058,6.43,1111122 
DISL,ioos:station:DISL:KATA:1,2015-11-02T18:00:00Z,30.2583,-88.2131,4.059,6.47,1111122 
DISL,ioos:station:DISL:KATA:1,2015-11-02T18:30:00Z,30.2583,-88.2131,4.067,6.35,1111122 
DISL,ioos:station:DISL:KATA:1,2015-11-02T19:00:00Z,30.2583,-88.2131,4.078,6.41,1111122 
DISL,ioos:station:DISL:KATA:1,2015-11-02T19:30:00Z,30.2583,-88.2131,4.086,5.87,1111122 
DISL,ioos:station:DISL:KATA:1,2015-11-02T20:00:00Z,30.2583,-88.2131,4.08,5.55,1111122 
DISL,ioos:station:DISL:KATA:1,2015-11-02T20:30:00Z,30.2583,-88.2131,4.062,5.7,1111122 
DISL,ioos:station:DISL:KATA:1,2015-11-02T21:00:00Z,30.2583,-88.2131,4.032,5.75,1111122 
DISL,ioos:station:DISL:KATA:1,2015-11-02T21:30:00Z,30.2583,-88.2131,4.025,5.66,1111122 
DISL,ioos:station:DISL:KATA:1,2015-11-02T22:00:00Z,30.2583,-88.2131,4.039,6.07,1111122 
DISL,ioos:station:DISL:KATA:1,2015-11-02T22:30:00Z,30.2583,-88.2131,4.049,6.24,1111122 
DISL,ioos:station:DISL:KATA:1,2015-11-02T23:00:00Z,30.2583,-88.2131,4.102,5.95,1111122 
DISL,ioos:station:DISL:KATA:1,2015-11-02T23:30:00Z,30.2583,-88.2131,4.171,5.97,1111122 
DISL,ioos:station:DISL:KATA:1,2015-11-03T00:00:00Z,30.2583,-88.2131,4.198,6.03,1111122 
DISL,ioos:station:DISL:KATA:1,2015-11-03T00:30:00Z,30.2583,-88.2131,4.215,6.11,1111122 
DISL,ioos:station:DISL:KATA:1,2015-11-03T01:00:00Z,30.2583,-88.2131,4.217,6.04,1111122 
DISL,ioos:station:DISL:KATA:1,2015-11-03T01:30:00Z,30.2583,-88.2131,4.219,6.6,1111122 
DISL,ioos:station:DISL:KATA:1,2015-11-03T02:00:00Z,30.2583,-88.2131,4.228,6.97,1111122 
DISL,ioos:station:DISL:KATA:1,2015-11-03T02:30:00Z,30.2583,-88.2131,4.24,7.11,1111122 
DISL,ioos:station:DISL:KATA:1,2015-11-03T03:00:00Z,30.2583,-88.2131,4.256,7.1,1111122 
DISL,ioos:station:DISL:KATA:1,2015-11-03T03:30:00Z,30.2583,-88.2131,4.289,6.88,1111122 
DISL,ioos:station:DISL:KATA:1,2015-11-03T04:00:00Z,30.2583,-88.2131,4.322,6.81,1111122 
DISL,ioos:station:DISL:KATA:1,2015-11-03T04:30:00Z,30.2583,-88.2131,4.344,6.75,1111122 
DISL,ioos:station:DISL:KATA:1,2015-11-03T05:00:00Z,30.2583,-88.2131,4.365,6.95,1111122 
DISL,ioos:station:DISL:KATA:1,2015-11-03T05:30:00Z,30.2583,-88.2131,4.39,6.9,1111122 
DISL,ioos:station:DISL:KATA:1,2015-11-03T06:00:00Z,30.2583,-88.2131,4.408,6.92,1111122 
DISL,ioos:station:DISL:KATA:1,2015-11-03T06:30:00Z,30.2583,-88.2131,4.413,6.85,1111122 
DISL,ioos:station:DISL:KATA:1,2015-11-03T07:00:00Z,30.2583,-88.2131,4.412,6.83,1111122 
DISL,ioos:station:DISL:KATA:1,2015-11-03T07:30:00Z,30.2583,-88.2131,4.406,6.88,1111122 
DISL,ioos:station:DISL:KATA:1,2015-11-03T08:00:00Z,30.2583,-88.2131,4.399,6.82,1111122 
DISL,ioos:station:DISL:KATA:1,2015-11-03T08:30:00Z,30.2583,-88.2131,4.38,6.85,1111122 
DISL,ioos:station:DISL:KATA:1,2015-11-03T09:00:00Z,30.2583,-88.2131,4.359,6.81,1111122 
DISL,ioos:station:DISL:KATA:1,2015-11-03T09:30:00Z,30.2583,-88.2131,4.342,6.6,1111122 
DISL,ioos:station:DISL:KATA:1,2015-11-03T10:00:00Z,30.2583,-88.2131,4.328,6.54,1111122 
DISL,ioos:station:DISL:KATA:1,2015-11-03T10:30:00Z,30.2583,-88.2131,4.32,6.21,1111122 
DISL,ioos:station:DISL:KATA:1,2015-11-03T11:00:00Z,30.2583,-88.2131,4.307,6.21,1111122 
DISL,ioos:station:DISL:KATA:1,2015-11-03T11:30:00Z,30.2583,-88.2131,4.294,6.18,1111122 
DISL,ioos:station:DISL:KATA:1,2015-11-03T12:00:00Z,30.2583,-88.2131,4.287,6.09,1111122 
DISL,ioos:station:DISL:KATA:1,2015-11-03T12:30:00Z,30.2583,-88.2131,4.277,5.83,1111122 
DISL,ioos:station:DISL:KATA:1,2015-11-03T13:00:00Z,30.2583,-88.2131,4.25,5.76,1111122 
DISL,ioos:station:DISL:KATA:1,2015-11-03T13:30:00Z,30.2583,-88.2131,4.221,5.52,1111122 
DISL,ioos:station:DISL:KATA:1,2015-11-03T14:00:00Z,30.2583,-88.2131,4.181,5.9,1111122 
DISL,ioos:station:DISL:KATA:1,2015-11-03T14:30:00Z,30.2583,-88.2131,4.154,6.03,1111122 
DISL,ioos:station:DISL:KATA:1,2015-11-03T15:00:00Z,30.2583,-88.2131,4.125,6.01,1111122 
DISL,ioos:station:DISL:KATA:1,2015-11-03T15:30:00Z,30.2583,-88.2131,4.093,6.17,1111122 
DISL,ioos:station:DISL:KATA:1,2015-11-03T16:00:00Z,30.2583,-88.2131,4.071,6.15,1111122 
DISL,ioos:station:DISL:KATA:1,2015-11-03T16:30:00Z,30.2583,-88.2131,4.058,6.22,1111122 
DISL,ioos:station:DISL:KATA:1,2015-11-03T17:00:00Z,30.2583,-88.2131,4.049,6.37,1111122 
DISL,ioos:station:DISL:KATA:1,2015-11-03T17:30:00Z,30.2583,-88.2131,4.053,6.05,1111122 
DISL,ioos:station:DISL:KATA:1,2015-11-03T18:00:00Z,30.2583,-88.2131,4.057,6.26,1111122 
DISL,ioos:station:DISL:KATA:1,2015-11-03T18:30:00Z,30.2583,-88.2131,4.062,6.6,1111122 
DISL,ioos:station:DISL:KATA:1,2015-11-03T19:00:00Z,30.2583,-88.2131,4.053,6.35,1111122 
DISL,ioos:station:DISL:KATA:1,2015-11-03T19:30:00Z,30.2583,-88.2131,4.05,6.51,1111122 
DISL,ioos:station:DISL:KATA:1,2015-11-03T20:00:00Z,30.2583,-88.2131,4.046,6.57,1111122 
DISL,ioos:station:DISL:KATA:1,2015-11-03T20:30:00Z,30.2583,-88.2131,4.036,6.35,1111122 
DISL,ioos:station:DISL:KATA:1,2015-11-03T21:00:00Z,30.2583,-88.2131,4.031,6.46,1111122 
DISL,ioos:station:DISL:KATA:1,2015-11-03T21:30:00Z,30.2583,-88.2131,4.033,6.59,1111122 
DISL,ioos:station:DISL:KATA:1,2015-11-03T22:00:00Z,30.2583,-88.2131,4.049,6.48,1111122 
DISL,ioos:station:DISL:KATA:1,2015-11-03T22:30:00Z,30.2583,-88.2131,4.068,7.06,1111122 
DISL,ioos:station:DISL:KATA:1,2015-11-03T23:00:00Z,30.2583,-88.2131,4.085,7.11,1111122 
DISL,ioos:station:DISL:KATA:1,2015-11-03T23:30:00Z,30.2583,-88.2131,4.115,7.04,1111122 
DISL,ioos:station:DISL:KATA:1,2015-11-04T00:00:00Z,30.2583,-88.2131,4.125,6.54,1111122 
DISL,ioos:station:DISL:KATA:1,2015-11-04T00:30:00Z,30.2583,-88.2131,4.135,6.23,1111122 
DISL,ioos:station:DISL:KATA:1,2015-11-04T01:00:00Z,30.2583,-88.2131,4.15,6.45,1111122 
DISL,ioos:station:DISL:KATA:1,2015-11-04T01:30:00Z,30.2583,-88.2131,4.159,6.62,1111122 
DISL,ioos:station:DISL:KATA:1,2015-11-04T02:00:00Z,30.2583,-88.2131,4.18,6.57,1111122 
DISL,ioos:station:DISL:KATA:1,2015-11-04T02:30:00Z,30.2583,-88.2131,4.196,6.59,1111122 
DISL,ioos:station:DISL:KATA:1,2015-11-04T03:00:00Z,30.2583,-88.2131,4.209,6.52,1111122 
DISL,ioos:station:DISL:KATA:1,2015-11-04T03:30:00Z,30.2583,-88.2131,4.228,6.61,1111122 
DISL,ioos:station:DISL:KATA:1,2015-11-04T04:00:00Z,30.2583,-88.2131,4.238,6.72,1111122 
DISL,ioos:station:DISL:KATA:1,2015-11-04T04:30:00Z,30.2583,-88.2131,4.236,7.14,1111122 
DISL,ioos:station:DISL:KATA:1,2015-11-04T05:00:00Z,30.2583,-88.2131,4.236,7.31,1111122 
DISL,ioos:station:DISL:KATA:1,2015-11-04T05:30:00Z,30.2583,-88.2131,4.249,7.37,1111122 
DISL,ioos:station:DISL:KATA:1,2015-11-04T06:00:00Z,30.2583,-88.2131,4.26,7.62,1111122 
DISL,ioos:station:DISL:KATA:1,2015-11-04T06:30:00Z,30.2583,-88.2131,4.274,7.72,1111122 
DISL,ioos:station:DISL:KATA:1,2015-11-04T07:00:00Z,30.2583,-88.2131,4.294,7.67,1111122 
DISL,ioos:station:DISL:KATA:1,2015-11-04T07:30:00Z,30.2583,-88.2131,4.304,7.6,1111122 
DISL,ioos:station:DISL:KATA:1,2015-11-04T08:00:00Z,30.2583,-88.2131,4.308,7.71,1111122 
DISL,ioos:station:DISL:KATA:1,2015-11-04T08:30:00Z,30.2583,-88.2131,4.311,7.65,1111122 
DISL,ioos:station:DISL:KATA:1,2015-11-04T09:00:00Z,30.2583,-88.2131,4.303,7.45,1111122 
DISL,ioos:station:DISL:KATA:1,2015-11-04T09:30:00Z,30.2583,-88.2131,4.285,7.24,1111122 
DISL,ioos:station:DISL:KATA:1,2015-11-04T10:00:00Z,30.2583,-88.2131,4.268,7.03,1111122 
DISL,ioos:station:DISL:KATA:1,2015-11-04T10:30:00Z,30.2583,-88.2131,4.249,6.95,1111122 
DISL,ioos:station:DISL:KATA:1,2015-11-04T11:00:00Z,30.2583,-88.2131,4.234,6.68,1111122 
DISL,ioos:station:DISL:KATA:1,2015-11-04T11:30:00Z,30.2583,-88.2131,4.223,6.84,1111122 
DISL,ioos:station:DISL:KATA:1,2015-11-04T12:00:00Z,30.2583,-88.2131,4.223,6.76,1111122 
DISL,ioos:station:DISL:KATA:1,2015-11-04T12:30:00Z,30.2583,-88.2131,4.209,6.79,1111122 
DISL,ioos:station:DISL:KATA:1,2015-11-04T13:00:00Z,30.2583,-88.2131,4.2,6.87,1111122 
DISL,ioos:station:DISL:KATA:1,2015-11-04T13:30:00Z,30.2583,-88.2131,4.185,6.65,1111122 
DISL,ioos:station:DISL:KATA:1,2015-11-04T14:00:00Z,30.2583,-88.2131,4.168,7.18,1111122 
DISL,ioos:station:DISL:KATA:1,2015-11-04T14:30:00Z,30.2583,-88.2131,4.139,6.98,1111122 
DISL,ioos:station:DISL:KATA:1,2015-11-04T15:00:00Z,30.2583,-88.2131,4.112,6.75,1111122 
DISL,ioos:station:DISL:KATA:1,2015-11-04T15:30:00Z,30.2583,-88.2131,4.089,6.59,1111122 
DISL,ioos:station:DISL:KATA:1,2015-11-04T16:00:00Z,30.2583,-88.2131,4.065,6.53,1111122 
DISL,ioos:station:DISL:KATA:1,2015-11-04T16:30:00Z,30.2583,-88.2131,4.035,6.58,1111122 
DISL,ioos:station:DISL:KATA:1,2015-11-04T17:00:00Z,30.2583,-88.2131,4.016,6.3,1111122 
DISL,ioos:station:DISL:KATA:1,2015-11-04T17:30:00Z,30.2583,-88.2131,4.003,6.97,1111122 
DISL,ioos:station:DISL:KATA:1,2015-11-04T18:00:00Z,30.2583,-88.2131,3.994,6.84,1111122 
DISL,ioos:station:DISL:KATA:1,2015-11-04T18:30:00Z,30.2583,-88.2131,3.984,6.86,1111122 
DISL,ioos:station:DISL:KATA:1,2015-11-04T19:00:00Z,30.2583,-88.2131,3.993,7.15,1111122 
DISL,ioos:station:DISL:KATA:1,2015-11-04T19:30:00Z,30.2583,-88.2131,4.003,7.03,1111122 
DISL,ioos:station:DISL:KATA:1,2015-11-04T20:00:00Z,30.2583,-88.2131,4.015,6.39,1111122 
DISL,ioos:station:DISL:KATA:1,2015-11-04T20:30:00Z,30.2583,-88.2131,4.039,6.09,1111122 
DISL,ioos:station:DISL:KATA:1,2015-11-04T21:00:00Z,30.2583,-88.2131,4.047,5.66,1111122 
DISL,ioos:station:DISL:KATA:1,2015-11-04T21:30:00Z,30.2583,-88.2131,4.054,5.87,1111122 
DISL,ioos:station:DISL:KATA:1,2015-11-04T22:00:00Z,30.2583,-88.2131,4.059,6.24,1111122 
DISL,ioos:station:DISL:KATA:1,2015-11-04T22:30:00Z,30.2583,-88.2131,4.056,6.34,1111122 
DISL,ioos:station:DISL:KATA:1,2015-11-04T23:00:00Z,30.2583,-88.2131,4.058,6.4,1111122 
DISL,ioos:station:DISL:KATA:1,2015-11-04T23:30:00Z,30.2583,-88.2131,4.067,6.52,1111122 
DISL,ioos:station:DISL:KATA:1,2015-11-05T00:00:00Z,30.2583,-88.2131,4.084,6.7,1111122 
DISL,ioos:station:DISL:KATA:1,2015-11-05T00:30:00Z,30.2583,-88.2131,4.097,6.49,1111122 
DISL,ioos:station:DISL:KATA:1,2015-11-05T01:00:00Z,30.2583,-88.2131,4.119,6.4,1111122 
DISL,ioos:station:DISL:KATA:1,2015-11-05T01:30:00Z,30.2583,-88.2131,4.145,6.61,1111122 
DISL,ioos:station:DISL:KATA:1,2015-11-05T02:00:00Z,30.2583,-88.2131,4.176,6.4,1111122 
DISL,ioos:station:DISL:KATA:1,2015-11-05T02:30:00Z,30.2583,-88.2131,4.195,6.34,1111122 
DISL,ioos:station:DISL:KATA:1,2015-11-05T03:00:00Z,30.2583,-88.2131,4.207,6.62,1111122 
DISL,ioos:station:DISL:KATA:1,2015-11-05T03:30:00Z,30.2583,-88.2131,4.214,6.5,1111122 
DISL,ioos:station:DISL:KATA:1,2015-11-05T04:00:00Z,30.2583,-88.2131,4.214,6.53,1111122 
DISL,ioos:station:DISL:KATA:1,2015-11-05T04:30:00Z,30.2583,-88.2131,4.206,6.46,1111122 
DISL,ioos:station:DISL:KATA:1,2015-11-05T05:00:00Z,30.2583,-88.2131,4.193,6.43,1111122 
DISL,ioos:station:DISL:KATA:1,2015-11-05T05:30:00Z,30.2583,-88.2131,4.181,6.36,1111122 
DISL,ioos:station:DISL:KATA:1,2015-11-05T06:00:00Z,30.2583,-88.2131,4.179,6.17,1111122 
DISL,ioos:station:DISL:KATA:1,2015-11-05T06:30:00Z,30.2583,-88.2131,4.179,6.16,1111122 
DISL,ioos:station:DISL:KATA:1,2015-11-05T07:00:00Z,30.2583,-88.2131,4.19,6.06,1111122 
DISL,ioos:station:DISL:KATA:1,2015-11-05T07:30:00Z,30.2583,-88.2131,4.209,6.01,1111122 
DISL,ioos:station:DISL:KATA:1,2015-11-05T08:00:00Z,30.2583,-88.2131,4.219,5.99,1111122 
DISL,ioos:station:DISL:KATA:1,2015-11-05T08:30:00Z,30.2583,-88.2131,4.223,6.1,1111122 
DISL,ioos:station:DISL:KATA:1,2015-11-05T09:00:00Z,30.2583,-88.2131,4.224,6.06,1111122 
DISL,ioos:station:DISL:KATA:1,2015-11-05T09:30:00Z,30.2583,-88.2131,4.218,5.94,1111122 
DISL,ioos:station:DISL:KATA:1,2015-11-05T10:00:00Z,30.2583,-88.2131,4.201,5.96,1111122 
DISL,ioos:station:DISL:KATA:1,2015-11-05T10:30:00Z,30.2583,-88.2131,4.181,6.01,1111122 
DISL,ioos:station:DISL:KATA:1,2015-11-05T11:00:00Z,30.2583,-88.2131,4.165,6.01,1111122 
DISL,ioos:station:DISL:KATA:1,2015-11-05T11:30:00Z,30.2583,-88.2131,4.149,5.94,1111122 
DISL,ioos:station:DISL:KATA:1,2015-11-05T12:00:00Z,30.2583,-88.2131,4.134,5.87,1111122 
DISL,ioos:station:DISL:KATA:1,2015-11-05T12:30:00Z,30.2583,-88.2131,4.14,5.91,1111122 
DISL,ioos:station:DISL:KATA:1,2015-11-05T13:00:00Z,30.2583,-88.2131,4.141,5.93,1111122 
DISL,ioos:station:DISL:KATA:1,2015-11-05T13:30:00Z,30.2583,-88.2131,4.154,6.26,1111122 
DISL,ioos:station:DISL:KATA:1,2015-11-05T14:00:00Z,30.2583,-88.2131,4.162,6.34,1111122 
DISL,ioos:station:DISL:KATA:1,2015-11-05T14:30:00Z,30.2583,-88.2131,4.162,6.48,1111122 
DISL,ioos:station:DISL:KATA:1,2015-11-05T15:00:00Z,30.2583,-88.2131,4.153,6.64,1111122 
DISL,ioos:station:DISL:KATA:1,2015-11-05T15:30:00Z,30.2583,-88.2131,4.133,6.91,1111122 
DISL,ioos:station:DISL:KATA:1,2015-11-05T16:00:00Z,30.2583,-88.2131,4.103,6.87,1111122 
DISL,ioos:station:DISL:KATA:1,2015-11-05T16:30:00Z,30.2583,-88.2131,4.079,6.92,1111122 
DISL,ioos:station:DISL:KATA:1,2015-11-05T17:00:00Z,30.2583,-88.2131,4.058,6.91,1111122 
DISL,ioos:station:DISL:KATA:1,2015-11-05T17:30:00Z,30.2583,-88.2131,4.037,6.92,1111122 
DISL,ioos:station:DISL:KATA:1,2015-11-05T18:00:00Z,30.2583,-88.2131,4.022,6.92,1111122 
DISL,ioos:station:DISL:KATA:1,2015-11-05T18:30:00Z,30.2583,-88.2131,4.021,6.93,1111122 
DISL,ioos:station:DISL:KATA:1,2015-11-05T19:00:00Z,30.2583,-88.2131,4.027,7.14,1111122 
DISL,ioos:station:DISL:KATA:1,2015-11-05T19:30:00Z,30.2583,-88.2131,4.043,7.45,1111122 
DISL,ioos:station:DISL:KATA:1,2015-11-05T20:00:00Z,30.2583,-88.2131,4.058,7.56,1111122 
DISL,ioos:station:DISL:KATA:1,2015-11-05T20:30:00Z,30.2583,-88.2131,4.066,7.51,1111122 
DISL,ioos:station:DISL:KATA:1,2015-11-05T21:00:00Z,30.2583,-88.2131,4.077,7.5,1111122 
DISL,ioos:station:DISL:KATA:1,2015-11-05T21:30:00Z,30.2583,-88.2131,4.09,7.51,1111122 
DISL,ioos:station:DISL:KATA:1,2015-11-05T22:00:00Z,30.2583,-88.2131,4.102,7.55,1111122 
DISL,ioos:station:DISL:KATA:1,2015-11-05T22:30:00Z,30.2583,-88.2131,4.111,7.4,1111122 
DISL,ioos:station:DISL:KATA:1,2015-11-05T23:00:00Z,30.2583,-88.2131,4.111,7.06,1111122 
DISL,ioos:station:DISL:KATA:1,2015-11-05T23:30:00Z,30.2583,-88.2131,4.115,6.91,1111122 
DISL,ioos:station:DISL:KATA:1,2015-11-06T00:00:00Z,30.2583,-88.2131,4.124,6.88,1111122 
DISL,ioos:station:DISL:KATA:1,2015-11-06T00:30:00Z,30.2583,-88.2131,4.133,6.79,1111122 
DISL,ioos:station:DISL:KATA:1,2015-11-06T01:00:00Z,30.2583,-88.2131,4.144,6.94,1111122 
DISL,ioos:station:DISL:KATA:1,2015-11-06T01:30:00Z,30.2583,-88.2131,4.167,7.06,1111122 
DISL,ioos:station:DISL:KATA:1,2015-11-06T02:00:00Z,30.2583,-88.2131,4.194,7.11,1111122 
DISL,ioos:station:DISL:KATA:1,2015-11-06T02:30:00Z,30.2583,-88.2131,4.203,7.19,1111122 
DISL,ioos:station:DISL:KATA:1,2015-11-06T03:00:00Z,30.2583,-88.2131,4.218,7.08,1111122 
DISL,ioos:station:DISL:KATA:1,2015-11-06T03:30:00Z,30.2583,-88.2131,4.237,6.9,1111122 
DISL,ioos:station:DISL:KATA:1,2015-11-06T04:00:00Z,30.2583,-88.2131,4.236,6.77,1111122 
DISL,ioos:station:DISL:KATA:1,2015-11-06T04:30:00Z,30.2583,-88.2131,4.228,6.68,1111122 
DISL,ioos:station:DISL:KATA:1,2015-11-06T05:00:00Z,30.2583,-88.2131,4.22,6.52,1111122 
DISL,ioos:station:DISL:KATA:1,2015-11-06T05:30:00Z,30.2583,-88.2131,4.2,6.45,1111122 
DISL,ioos:station:DISL:KATA:1,2015-11-06T06:00:00Z,30.2583,-88.2131,4.192,6.19,1111122 
DISL,ioos:station:DISL:KATA:1,2015-11-06T06:30:00Z,30.2583,-88.2131,4.187,6.13,1111122 
DISL,ioos:station:DISL:KATA:1,2015-11-06T07:00:00Z,30.2583,-88.2131,4.185,6.01,1111122 
DISL,ioos:station:DISL:KATA:1,2015-11-06T07:30:00Z,30.2583,-88.2131,4.185,6.17,1111122 
DISL,ioos:station:DISL:KATA:1,2015-11-06T08:00:00Z,30.2583,-88.2131,4.184,6.21,1111122 
DISL,ioos:station:DISL:KATA:1,2015-11-06T08:30:00Z,30.2583,-88.2131,4.186,6.28,1111122 
DISL,ioos:station:DISL:KATA:1,2015-11-06T09:00:00Z,30.2583,-88.2131,4.178,6.18,1111122 
DISL,ioos:station:DISL:KATA:1,2015-11-06T09:30:00Z,30.2583,-88.2131,4.182,5.99,1111122 
DISL,ioos:station:DISL:KATA:1,2015-11-06T10:00:00Z,30.2583,-88.2131,4.179,6.13,1111122 
DISL,ioos:station:DISL:KATA:1,2015-11-06T10:30:00Z,30.2583,-88.2131,4.169,5.88,1111122 
DISL,ioos:station:DISL:KATA:1,2015-11-06T11:00:00Z,30.2583,-88.2131,4.162,5.96,1111122 
DISL,ioos:station:DISL:KATA:1,2015-11-06T11:30:00Z,30.2583,-88.2131,4.151,5.62,1111122 
DISL,ioos:station:DISL:KATA:1,2015-11-06T12:00:00Z,30.2583,-88.2131,4.135,5.61,1111122 
DISL,ioos:station:DISL:KATA:1,2015-11-06T12:30:00Z,30.2583,-88.2131,4.125,5.9,1111122 
DISL,ioos:station:DISL:KATA:1,2015-11-06T13:00:00Z,30.2583,-88.2131,4.126,6.32,1111122 
DISL,ioos:station:DISL:KATA:1,2015-11-06T13:30:00Z,30.2583,-88.2131,4.134,6.12,1111122 
DISL,ioos:station:DISL:KATA:1,2015-11-06T14:00:00Z,30.2583,-88.2131,4.139,5.97,1111122 
DISL,ioos:station:DISL:KATA:1,2015-11-06T14:30:00Z,30.2583,-88.2131,4.154,6.08,1111122 
DISL,ioos:station:DISL:KATA:1,2015-11-06T15:00:00Z,30.2583,-88.2131,4.166,5.57,1111122 
DISL,ioos:station:DISL:KATA:1,2015-11-06T15:30:00Z,30.2583,-88.2131,4.157,5.4,1111122 